• En España
  • Lista de países
  • Para 7 días
  • Temperatura del agua
  • Mapa Satelital
  • El tiempo en el mapa
  • Informadores
  • user-avatar
    Iniciar sesión

    Tiempo cada hora Tirana

    Hoy, 24 Agosto, Jueves

    Tiempo Temperatura Precipitaciones Viento Presión Humedad
    00:00 +20°C° 0 mm 2 mps 755 mmHg 51%
    01:00 +20°C° 0 mm 2 mps 755 mmHg 48%
    02:00 +20°C° 0 mm 2 mps 755 mmHg 49%
    03:00 +19°C° 0 mm 2 mps 755 mmHg 50%
    04:00 +19°C° 0 mm 2 mps 755 mmHg 51%
    05:00 +21°C° 0 mm 2 mps 756 mmHg 48%
    06:00 +23°C° 0 mm 2 mps 756 mmHg 46%
    07:00 +25°C° 0 mm 2 mps 756 mmHg 43%
    08:00 +27°C° 0 mm 2 mps 756 mmHg 37%
    09:00 +30°C° 0 mm 2 mps 756 mmHg 32%
    10:00 +32°C° 0 mm 2 mps 756 mmHg 26%
    11:00 +34°C° 0 mm 3 mps 756 mmHg 24%
    12:00 +34°C° 0 mm 4 mps 756 mmHg 22%
    13:00 +35°C° 0 mm 4 mps 756 mmHg 20%
    14:00 +35°C° 0 mm 5 mps 756 mmHg 21%
    15:00 +34°C° 0 mm 5 mps 756 mmHg 22%
    16:00 +34°C° 0 mm 5 mps 756 mmHg 23%
    17:00 +30°C° 0 mm 5 mps 756 mmHg 30%
    18:00 +27°C° 0 mm 4 mps 756 mmHg 37%
    19:00 +24°C° 0 mm 3 mps 756 mmHg 45%
    20:00 +24°C° 0 mm 3 mps 757 mmHg 43%
    21:00 +24°C° 0 mm 2 mps 757 mmHg 41%
    22:00 +23°C° 0 mm 2 mps 757 mmHg 38%
    23:00 +23°C° 0 mm 2 mps 757 mmHg 37%

    Mañana, 25 Agosto, Viernes

    Tiempo Temperatura Precipitaciones Viento Presión Humedad
    00:00 +23°C° 0 mm 2 mps 757 mmHg 35%
    01:00 +23°C° 0 mm 2 mps 757 mmHg 34%
    02:00 +23°C° 0 mm 2 mps 757 mmHg 33%
    03:00 +21°C° 0 mm 2 mps 757 mmHg 33%
    04:00 +21°C° 0 mm 2 mps 757 mmHg 32%
    05:00 +24°C° 0 mm 2 mps 757 mmHg 32%
    06:00 +25°C° 0 mm 2 mps 757 mmHg 31%
    07:00 +27°C° 0 mm 2 mps 757 mmHg 30%
    08:00 +30°C° 0 mm 2 mps 757 mmHg 26%
    09:00 +32°C° 0 mm 2 mps 757 mmHg 23%
    10:00 +36°C° 0 mm 2 mps 757 mmHg 19%
    11:00 +37°C° 0 mm 2 mps 757 mmHg 18%
    12:00 +37°C° 0 mm 3 mps 756 mmHg 17%
    13:00 +38°C° 0 mm 4 mps 756 mmHg 16%
    14:00 +38°C° 0 mm 4 mps 756 mmHg 17%
    15:00 +37°C° 0 mm 4 mps 755 mmHg 18%
    16:00 +37°C° 0 mm 5 mps 755 mmHg 19%
    17:00 +34°C° 0 mm 4 mps 755 mmHg 26%
    18:00 +29°C° 0 mm 3 mps 755 mmHg 32%
    19:00 +26°C° 0 mm 3 mps 755 mmHg 38%
    20:00 +26°C° 0 mm 2 mps 756 mmHg 36%
    21:00 +26°C° 0 mm 2 mps 756 mmHg 34%
    22:00 +25°C° 0 mm 2 mps 756 mmHg 32%
    23:00 +25°C° 0 mm 2 mps 756 mmHg 31%

    Pasado mañana, 26 Agosto, Sábado

    Tiempo Temperatura Precipitaciones Viento Presión Humedad
    00:00 +24°C° 0 mm 2 mps 756 mmHg 29%
    01:00 +24°C° 0 mm 1 mps 756 mmHg 27%
    02:00 +24°C° 0 mm 1 mps 755 mmHg 27%
    03:00 +23°C° 0 mm 1 mps 755 mmHg 27%
    04:00 +23°C° 0 mm 1 mps 755 mmHg 28%
    05:00 +25°C° 0 mm 2 mps 755 mmHg 28%
    06:00 +26°C° 0 mm 2 mps 755 mmHg 28%
    07:00 +28°C° 0 mm 2 mps 755 mmHg 28%
    08:00 +31°C° 0 mm 1 mps 755 mmHg 24%
    09:00 +33°C° 0 mm 1 mps 755 mmHg 20%
    10:00 +36°C° 0 mm 1 mps 755 mmHg 16%
    11:00 +38°C° 0 mm 2 mps 755 mmHg 16%
    12:00 +38°C° 0 mm 3 mps 755 mmHg 15%
    13:00 +40°C° 0 mm 4 mps 754 mmHg 15%
    14:00 +38°C° 0 mm 4 mps 754 mmHg 16%
    15:00 +38°C° 0 mm 4 mps 754 mmHg 17%
    16:00 +37°C° 0 mm 4 mps 753 mmHg 18%
    17:00 +34°C° 0 mm 4 mps 753 mmHg 25%
    18:00 +30°C° 0 mm 3 mps 754 mmHg 31%
    19:00 +27°C° 0 mm 2 mps 754 mmHg 38%
    20:00 +26°C° 0 mm 2 mps 754 mmHg 37%
    21:00 +26°C° 0 mm 2 mps 754 mmHg 35%
    22:00 +26°C° 0 mm 1 mps 754 mmHg 33%
    23:00 +26°C° 0 mm 1 mps 754 mmHg 33%

    27 Agosto, Domingo

    Tiempo Temperatura Precipitaciones Viento Presión Humedad
    00:00 +25°C° 0 mm 1 mps 754 mmHg 32%
    01:00 +25°C° 0 mm 1 mps 754 mmHg 31%
    02:00 +25°C° 0 mm 1 mps 754 mmHg 31%
    03:00 +24°C° 0 mm 1 mps 754 mmHg 31%
    04:00 +24°C° 0 mm 2 mps 754 mmHg 31%
    05:00 +26°C° 0 mm 2 mps 754 mmHg 31%
    06:00 +27°C° 0 mm 2 mps 754 mmHg 30%
    07:00 +29°C° 0 mm 2 mps 754 mmHg 29%
    08:00 +32°C° 0 mm 1 mps 754 mmHg 25%
    09:00 +34°C° 0 mm 1 mps 754 mmHg 21%
    10:00 +37°C° 0 mm 1 mps 753 mmHg 17%
    11:00 +38°C° 0 mm 2 mps 753 mmHg 17%
    12:00 +39°C° 0 mm 3 mps 753 mmHg 16%
    13:00 +40°C° 0 mm 4 mps 752 mmHg 15%
    14:00 +40°C° 0 mm 5 mps 752 mmHg 16%
    15:00 +39°C° 0 mm 5 mps 752 mmHg 18%
    16:00 +37°C° 0 mm 5 mps 752 mmHg 19%
    17:00 +34°C° 0 mm 4 mps 752 mmHg 26%
    18:00 +30°C° 0 mm 3 mps 752 mmHg 33%
    19:00 +27°C° 0 mm 2 mps 752 mmHg 40%
    20:00 +27°C° 0 mm 2 mps 752 mmHg 38%
    21:00 +27°C° 0 mm 2 mps 752 mmHg 35%
    22:00 +26°C° 0 mm 1 mps 753 mmHg 33%
    23:00 +26°C° 0 mm 1 mps 753 mmHg 32%

    28 Agosto, Lunes

    Tiempo Temperatura Precipitaciones Viento Presión Humedad
    00:00 +26°C° 0 mm 1 mps 752 mmHg 30%
    01:00 +26°C° 0 mm 1 mps 752 mmHg 29%
    02:00 +25°C° 0 mm 1 mps 752 mmHg 29%
    03:00 +25°C° 0 mm 2 mps 752 mmHg 29%
    04:00 +25°C° 0 mm 2 mps 752 mmHg 29%
    05:00 +26°C° 0 mm 2 mps 752 mmHg 28%
    06:00 +28°C° 0 mm 1 mps 752 mmHg 27%
    07:00 +30°C° 0 mm 1 mps 752 mmHg 26%
    08:00 +32°C° 0 mm 2 mps 752 mmHg 23%
    09:00 +36°C° 0 mm 2 mps 752 mmHg 20%
    10:00 +38°C° 0 mm 2 mps 752 mmHg 16%
    11:00 +39°C° 0 mm 3 mps 751 mmHg 16%
    12:00 +40°C° 0 mm 4 mps 751 mmHg 16%
    13:00 +41°C° 0 mm 4 mps 750 mmHg 15%
    14:00 +40°C° 0 mm 5 mps 750 mmHg 17%
    15:00 +39°C° 0 mm 5 mps 750 mmHg 18%
    16:00 +37°C° 0 mm 5 mps 750 mmHg 20%
    17:00 +34°C° 0 mm 4 mps 750 mmHg 28%
    18:00 +30°C° 0 mm 3 mps 750 mmHg 35%
    19:00 +27°C° 0 mm 2 mps 750 mmHg 43%
    20:00 +27°C° 0 mm 2 mps 751 mmHg 41%
    21:00 +27°C° 0 mm 2 mps 751 mmHg 39%
    22:00 +27°C° 0 mm 1 mps 751 mmHg 37%
    23:00 +27°C° 0 mm 1 mps 751 mmHg 35%

    29 Agosto, Martes

    Tiempo Temperatura Precipitaciones Viento Presión Humedad
    00:00 +26°C° 0 mm 2 mps 751 mmHg 33%
    01:00 +26°C° 0 mm 2 mps 751 mmHg 30%
    02:00 +26°C° 0 mm 2 mps 751 mmHg 30%
    03:00 +26°C° 0 mm 2 mps 751 mmHg 29%
    04:00 +25°C° 0 mm 2 mps 751 mmHg 29%
    05:00 +27°C° 0 mm 2 mps 751 mmHg 29%
    06:00 +29°C° 0 mm 2 mps 751 mmHg 28%
    07:00 +30°C° 0 mm 2 mps 751 mmHg 28%
    08:00 +34°C° 0 mm 2 mps 751 mmHg 24%
    09:00 +36°C° 0 mm 2 mps 751 mmHg 21%
    10:00 +39°C° 0 mm 2 mps 751 mmHg 18%
    11:00 +39°C° 0 mm 3 mps 751 mmHg 18%
    12:00 +40°C° 0 mm 3 mps 751 mmHg 17%
    13:00 +42°C° 0 mm 4 mps 750 mmHg 16%
    14:00 +41°C° 0 mm 4 mps 750 mmHg 17%
    15:00 +41°C° 0 mm 5 mps 750 mmHg 18%
    16:00 +40°C° 0 mm 6 mps 750 mmHg 19%
    17:00 +36°C° 0 mm 5 mps 750 mmHg 25%
    18:00 +34°C° 0 mm 5 mps 751 mmHg 31%
    19:00 +30°C° 0 mm 4 mps 751 mmHg 37%
    20:00 +29°C° 0 mm 4 mps 751 mmHg 38%
    21:00 +29°C° 0 mm 3 mps 752 mmHg 39%
    22:00 +28°C° 0 mm 3 mps 752 mmHg 39%
    23:00 +27°C° 0 mm 3 mps 752 mmHg 40%
    Mostrar más